www.pogodaiklimat.ru

Погода и климат >> Архив погоды >> Китай >> Chenzhou


ПОГОДА в Chenzhou

  • Прогноз погоды в Chenzhou
  • Монитор погоды в Chenzhou
  • Климат города

АРХИВ ПОГОДЫ в Chenzhou

Время (UTC), дата Ветер
(напр.,м/с)
 
Видим.   Явления Облачность Т
(С)
Тd
(С)
f
(%)
Тe
(С)
Тes
(С)
Комфортность P
(гПа)
Po
(гПа)
Тmin
(С)
Tmax
(С)
R
(мм)
R24
(мм)
S
(см)
18 12.07 З 1 30 км н/о +23.7 +23.0 96 +31 +31 очень
душно
1004.4 962.9 +28.8
21 12.07 С 2 30 км ?/? +23.2 +23.0 99 +32 +32 очень
душно
1004.4 1004.0
00 13.07 С 1 30 км 9/9 1000 м
[]
+25.3 +23.7 91 +34 +35 очень
душно
1005.6 964.0 0.0
03 13.07 Ю 9 30 км слабый ливневой дождь 9/9 1000 м
[]
+26.0 +23.1 84 +35 +35 очень
душно
1005.9 949.9
06 13.07 Ю 4 30 км слабый ливневой дождь 8/8 1000 м
[]
+30.6 +24.3 69 +43 +45 опасность
перегрева
1004.0 962.7 +22.9 0.0
09 13.07 СЗ 1 30 км {ливн. осадки} 9/9 1000 м
[]
+30.7 +23.9 67 +42 +43 опасность
перегрева
1002.5 1003.0
12 13.07 Ю 6 30 км {ливн. осадки} 10/10 300 м
[]
+25.2 +24.2 94 +35 +35 очень
душно
1004.1 962.5 3
15 13.07 Ю 8 30 км ?/? +25.6 +22.7 84 +34 +34 очень
душно
1006.0 949.8
18 13.07 Ю 5 30 км ?/? +25.2 +22.9 87 +33 +33 очень
душно
1005.3 964.0 +31.8
21 13.07 Ю 8 30 км ?/? +25.4 +22.3 83 +33 +33 очень
душно
1004.1 1004.0
00 14.07 Ю 6 30 км 10/10 1500 м
[]
+26.3 +22.2 78 +34 +34 очень
душно
1005.2 963.7
03 14.07 Ю 7 30 км 10/10 1500 м
[]
+29.8 +23.0 67 +40 +40 очень
душно
1005.8 950.1
06 14.07 Ю 4 30 км 8/8 1000 м
[]
+29.7 +22.4 65 +39 +41 очень
душно
1004.6 963.3 +24.9
09 14.07 Ю 6 30 км слабый ливневой дождь 8/8 1000 м
[]
+28.2 +23.6 76 +38 +39 очень
душно
1003.4 1003.0
12 14.07 Ю 3 30 км {ливн. осадки} 6/6 1000 м
[]
+27.3 +23.1 78 +37 +37 очень
душно
1004.3 962.9 0.0
15 14.07 Ю 4 30 км н/о +25.6 +23.1 86 +34 +34 очень
душно
1006.4 949.8
18 14.07 Ю 3 30 км ?/? +24.6 +21.7 84 +31 +31 очень
душно
1005.3 963.9 +31.6
21 14.07 Ю 1 30 км н/о +24.4 +22.3 88 +32 +32 очень
душно
1005.0 1005.0
00 15.07 СВ 1 30 км 3/3 1000 м
[]
+26.9 +22.7 78 +36 +40 очень
душно
1006.8 965.4
03 15.07 Ю 4 30 км 8/8 1000 м
[]
+30.7 +22.8 63 +41 +43 опасность
перегрева
1007.3 951.5
06 15.07 С 1 30 км 4/4 1000 м
[]
+32.3 +22.1 55 +41 +55 опасность
перегрева
1005.1 963.9 +23.7
09 15.07 Ю 4 30 км 9/9 1000 м
[]
+32.0 +22.7 58 +42 +42 опасность
перегрева
1003.3 1003.0
12 15.07 Ю 3 30 км {ливн. осадки} 8/8 1500 м
[]
+26.4 +23.1 82 +35 +35 очень
душно
1004.8 963.4 1
15 15.07 Ю 5 30 км ?/? +25.7 +23.0 85 +34 +34 очень
душно
1005.7 950.2
18 15.07 Ю 3 30 км ?/? +25.3 +22.8 86 +33 +33 очень
душно
1005.1 964.0 +33.7
21 15.07 Ю 4 30 км ?/? +24.6 +23.0 91 +33 +33 очень
душно
1005.0 1005.0
00 16.07 В 1 30 км 6/6 1500 м
[]
+26.9 +23.8 83 +37 +39 очень
душно
1006.4 964.9
03 16.07 С 2 30 км 9/9 1500 м
[]
+30.6 +24.7 71 +43 +45 опасность
перегрева
1006.3 950.9
06 16.07 В 1 30 км 9/9 1500 м
[]
+31.0 +23.6 65 +42 +44 опасность
перегрева
1004.9 963.7 +24.1
09 16.07 С 2 30 км 8/8 1500 м
[]
+32.3 +23.3 59 +43 +44 опасность
перегрева
1003.5 1004.0
12 16.07 Ю 1 30 км {ливн. осадки} 9/9 1500 м
[]
+29.1 +23.3 71 +39 +39 очень
душно
1003.8 962.6
15 16.07 ЮЗ 2 30 км ?/? +26.9 +23.2 80 +36 +36 очень
душно
1004.5 949.2
18 16.07 С 2 30 км ?/? +26.0 +23.5 86 +35 +35 очень
душно
1004.4 963.3 +32.6
21 16.07 Ю 1 30 км ?/? +25.8 +22.5 82 +34 +34 очень
душно
1003.9 1004.0
00 17.07 С 1 30 км 5/5 1500 м
[]
+26.7 +24.0 85 +37 +40 очень
душно
1004.9 963.7
03 17.07 З 2 30 км 6/6 1500 м
[]
+31.4 +23.0 61 +42 +49 опасность
перегрева
1005.1 949.7
06 17.07 С 4 30 км 8/8 1500 м
[]
+32.8 +22.0 53 +41 +44 опасность
перегрева
1003.4 962.4 +23.9
09 17.07 С 4 30 км 8/8 1500 м
[]
+33.0 +22.8 55 +43 +44 опасность
перегрева
1002.3 1002.0
12 17.07 С 4 30 км 3/3
[]
+28.7 +23.4 73 +39 +39 очень
душно
1003.4 962.2
15 17.07 Ю 1 30 км ?/? +28.3 +23.4 75 +38 +38 очень
душно
1003.2 1003.0
18 17.07 Ю 2 30 км ?/? +26.8 +23.5 82 +36 +36 очень
душно
1003.6 962.7 +34.3
21 17.07 ЮВ 2 30 км ?/? +26.5 +22.6 79 +35 +35 очень
душно
1003.8 1004.0
00 18.07 ЮВ 1 30 км ясно +28.8 +23.2 72 +39 +45 очень
душно
1004.8 963.7
03 18.07 В 1 30 км 3/3 1000 м
[]
+32.7 +24.7 63 +46 +62 опасность
перегрева
1004.6 949.7
06 18.07 ЮВ 2 30 км 3/3 1000 м
[]
+33.8 +24.1 57 +46 +59 опасность
перегрева
1003.0 962.2 +25.7
09 18.07 ЮВ 5 30 км 4/4 1000 м
[]
+33.6 +23.6 56 +45 +46 опасность
перегрева
1001.4 1001.0
12 18.07 Ю 5 30 км в посл. час ливневой дождь 10/10 1000 м
[]
+25.8 +24.6 93 +36 +36 очень
душно
1003.5 962.2 0.8
15 18.07 С 3 26 км ?/? +25.6 +24.0 91 +35 +35 очень
душно
1005.3 949.2
18 18.07 Ю 2 30 км н/о +24.9 +24.6 98 +35 +35 очень
душно
1004.1 963.1 +35.5 6
21 18.07 Ю 3 30 км ?/? +25.0 +24.5 97 +35 +35 очень
душно
1005.0 1005.0
00 19.07 Ю 3 30 км 6/6 1500 м
[]
+26.9 +24.9 89 +39 +40 очень
душно
1006.6 965.1 6
03 19.07 Ю 4 30 км 6/6 1000 м
[]
+31.1 +24.0 66 +43 +48 опасность
перегрева
1006.2 1006.0
06 19.07 ЮЗ 3 30 км 8/8 1000 м
[]
+33.1 +24.3 60 +45 +49 опасность
перегрева
1004.2 963.1 +24.8
09 19.07 В 2 30 км 8/8 1000 м
[]
+32.9 +23.8 59 +44 +45 опасность
перегрева
1002.6 1003.0
12 19.07 Ю 7 27 км слабый ливневой дождь 10/10 300 м
[]
+25.3 +23.7 91 +34 +34 очень
душно
1004.1 962.7 6

 

Местоположение метеостанции Chenzhou (Китай): широта 25.80 долгота 113.03 высота над уровнем моря 185 м.

В архиве по умолчанию представлена погода в Chenzhou за последнюю неделю. Архивные данные за месяц целиком и за предыдущие месяцы, начиная с января 2011 года, Вы можете получить, выбрав интересующий диапазон дат из раскрывающегося списка и нажав кнопку "Ввод!".


*Определитесь, кто Вы:
робот инопланетянин человек

Внимание! Время в таблицах - всемирное. Для получения местного времени необходимо прибавить поправку, которая в Chenzhou равна 8 ч.

Смотрите также архив погоды в соседних городах и на ближайших метеорологических станциях:

Погода в Shaoguan (Китай) (124 км)
Погода в Lian Xian (Китай) (131 км)
Погода в Lingling (Китай) (150 км)
Погода в Nanyue (Китай) (170 км)
Погода в Ganzhou (Китай) (197 км)
Погода в Lianping (Китай) (216 км)
Погода в Fogang (Китай) (221 км)
Погода в Shaoyang (Китай) (223 км)
Погода в Jian (Китай) (242 км)
Погода в Yichun (Китай) (260 км)

Пояснения к столбцам:

Ветер - указаны скорость ветра в м/с - средняя за 10 мин, порывы в срок и между сроками (в фигурных скобках) и направление, откуда дует ветер: С - северный, СВ - северо-восточный, В - восточный, ЮВ - юго-восточный, Ю - южный, ЮЗ - юго-западный, З - западный, СЗ - северо-западный.
Видимость - горизонтальная дальность видимости в метрах или километрах. При видимости от 1 до 10 км при отсутствии осадков обычно наблюдается дымка, при ухудшении видимости до 1 км и менее - туман. В сухую погоду видимость может ухудшаться дымом, пылью или мглою.
Явления - указаны атмосферные явления, наблюдавшиеся в срок или в последний час перед сроком; фигурными скобками обозначены явления, наблюдавшиеся между сроками (за 1-3 часа до срока); квадратными скобками обозначены град или гололедные отложения с указанием их диаметра в мм.
Облачность - указаны через наклонную черту общая и нижняя облачность в баллах и высота нижней границы облаков в метрах; квадратными скобками обозначены формы облаков: Ci - перистые, Cs - перисто-слоистые, Cc - перисто-кучевые, Ac - высококучевые, As - высокослоистые, Sc - слоисто-кучевые, Ns - слоисто-дождевые, Cu - кучевые, Cb - кучево-дождевые. Подробнее классификацию облаков см. в Атласе облаков (PDF).
T - Температура воздуха - температура, измеренная на высоте 2 м над землей.
Td - Температура точки росы - температура, при понижении до которой содержащийся в воздухе водяной пар достигнет насыщения.
f - Относительная влажность воздуха - влажноcть воздуха, измеренная на высоте 2 м над землей.
Te - Эффективная температура - температура, которую ощущает одетый по сезону человек в тени. Характеристика душности погоды. При расчете учитывается влияние влажности воздуха и скорости ветра на теплоощущения человека.
Tes - Эффективная температура на солнце - температура, которую ощущает человек, с поправкой на солнечный нагрев. Характеристика знойности погоды. Зависит от высоты солнца над горизонтом, облачности и скорости ветра. Ночью, в пасмурную погоду, а также при ветре 12 м/с и более поправка равна нулю.
P - Атмосферное давление - приведенное к уровню моря атмосферное давление.
Po - Атмосферное давление - измеренное на уровне метеостанции атмосферное давление.
Tmin - Минимальная температура - минимум температуры воздуха на высоте 2 м над землей.
Tmax - Максимальная температура - максимум температуры воздуха на высоте 2 м над землей.
R - Количество осадков - Количество выпавших осадков за период времени, мм. При наведении курсора мыши на число - период времени, за который выпало указанное количество осадков.
R24 - Количество осадков - Количество выпавших осадков за 24 часа, мм.
S - Снежный покров - Высота снежного покрова, см. При наведении курсора мыши на число - состояние снежного покрова и степень покрытия местности в баллах.